Charleston, SC

9:57 AM EDT on October 01, 2016 (GMT -0400)
Charleston Air Force Base-International

Weather History for KCHS - October, 2014

Change the Weather History Date:

Thursday, October 30, 2014

  Actual Average Record
Temperature  
Mean Temperature 65 °F 63 °F  
Max Temperature 74 °F 74 °F 85 °F (1940)
Min Temperature 56 °F 52 °F 27 °F (1952)
Degree Days  
Heating Degree Days 0 4  
Month to date heating degree days 20 62  
Since 1 July heating degree days 20 65  
Cooling Degree Days 0 2  
Month to date cooling degree days 183 124  
Year to date cooling degree days 2751 2262  
Growing Degree Days 15 (Base 50)    
Moisture  
Dew Point 57 °F    
Average Humidity 72    
Maximum Humidity 90    
Minimum Humidity 53    
Precipitation  
Precipitation 0.00 in 0.09 in 1.48 in (1993)
Month to date precipitation 0.86 3.66  
Year to date precipitation 44.85 45.40  
Sea Level Pressure  
Sea Level Pressure 29.96 in    
Wind  
Wind Speed 7 mph (North)    
Max Wind Speed 15 mph    
Max Gust Speed 20 mph    
Visibility 10 miles    
Events      
T = Trace of Precipitation, MM = Missing Value Source: NWS Daily Summary

Daily Weather History Graph

Daily Weather History Graph

Search for Another Location

Airport or City:

Trip Planner

Search our weather history database for the weather conditions in past years. The results will help you decide how hot, cold, wet, or windy it might be!

Date:

Astronomy

Oct. 30, 2014 Rise Set
Actual Time 7:36 AM EDT 6:30 PM EDT
Civil Twilight 7:10 AM EDT 6:56 PM EDT
Nautical Twilight 6:41 AM EDT 7:25 PM EDT
Astronomical Twilight 6:12 AM EDT 7:54 PM EDT
Moon 1:37 PM EDT (10/30) No Moon Set
Length of Visible Light 11h 45m
Length of Day
10h 54m
Waxing Crescent, 45% of the Moon is Illuminated
Oct 30
Waxing Crescent
Oct 30
First Quarter
Nov 6
Full
Nov 14
Last Quarter
Nov 22
New

Hourly Weather History & Observations

Time (EDT) Temp. Dew Point Humidity Pressure Visibility Wind Dir Wind Speed Gust Speed Precip Events Conditions
12:56 AM 69.1 °F 66.0 °F 90% 29.96 in 10.0 mi West 4.6 mph - N/A   Mostly Cloudy
1:56 AM 70.0 °F 66.0 °F 87% 29.96 in 10.0 mi WNW 3.5 mph - N/A   Overcast
2:56 AM 70.0 °F 66.0 °F 87% 29.94 in 10.0 mi West 6.9 mph - N/A   Mostly Cloudy
3:56 AM 69.1 °F 66.0 °F 90% 29.94 in 10.0 mi West 5.8 mph - N/A   Scattered Clouds
4:56 AM 68.0 °F 64.0 °F 87% 29.94 in 10.0 mi NNW 6.9 mph - N/A   Scattered Clouds
5:35 AM 68.0 °F 64.4 °F 88% 29.94 in 10.0 mi North 10.4 mph - N/A   Mostly Cloudy
5:56 AM 68.0 °F 64.0 °F 87% 29.94 in 10.0 mi North 5.8 mph - N/A   Mostly Cloudy
6:56 AM 63.0 °F 57.9 °F 84% 29.97 in 10.0 mi NNE 12.7 mph - N/A   Overcast
7:28 AM 60.8 °F 53.6 °F 77% 29.97 in 10.0 mi NNE 8.1 mph 19.6 mph N/A   Mostly Cloudy
7:56 AM 60.1 °F 53.1 °F 78% 29.98 in 10.0 mi NNE 9.2 mph - N/A   Mostly Cloudy
8:56 AM 62.1 °F 52.0 °F 70% 29.99 in 10.0 mi NNE 9.2 mph - N/A   Partly Cloudy
9:56 AM 64.9 °F 52.0 °F 63% 30.00 in 10.0 mi NNE 10.4 mph - N/A   Partly Cloudy
10:56 AM 68.0 °F 53.1 °F 59% 29.99 in 10.0 mi North 10.4 mph - N/A   Clear
11:56 AM 70.0 °F 53.1 °F 55% 30.00 in 10.0 mi North 10.4 mph - N/A   Clear
12:56 PM 72.0 °F 54.0 °F 53% 29.98 in 10.0 mi North 10.4 mph - N/A   Clear
1:56 PM 73.9 °F 55.9 °F 53% 29.95 in 10.0 mi North 5.8 mph - N/A   Partly Cloudy
2:56 PM 73.9 °F 55.9 °F 53% 29.94 in 10.0 mi NE 12.7 mph - N/A   Scattered Clouds
3:56 PM 70.0 °F 55.9 °F 61% 29.94 in 10.0 mi ENE 11.5 mph - N/A   Scattered Clouds
4:56 PM 68.0 °F 55.9 °F 65% 29.94 in 10.0 mi NNE 13.8 mph - N/A   Partly Cloudy
5:56 PM 64.0 °F 55.0 °F 73% 29.94 in 10.0 mi NE 8.1 mph - N/A   Scattered Clouds
6:56 PM 62.1 °F 55.0 °F 78% 29.94 in 10.0 mi NE 5.8 mph - N/A   Scattered Clouds
7:56 PM 62.1 °F 55.0 °F 78% 29.94 in 10.0 mi NE 3.5 mph - N/A   Partly Cloudy
8:56 PM 60.1 °F 55.0 °F 83% 29.94 in 10.0 mi NNE 3.5 mph - N/A   Scattered Clouds
9:56 PM 59.0 °F 55.0 °F 87% 29.94 in 10.0 mi Calm Calm - N/A   Clear
10:56 PM 57.0 °F 54.0 °F 89% 29.94 in 10.0 mi Calm Calm - N/A   Partly Cloudy
11:56 PM 57.9 °F 54.0 °F 87% 29.92 in 10.0 mi North 3.5 mph - N/A   Scattered Clouds